This is the latest recevied weather packets stored in our database for station/object KC8SWY-15. If no packets are shown the sender has not sent any weather packets the latest 10 day(s).
| Time | Temp. | Humidity | Pressure | Rain* | Wind** | Luminosity | Snow |
|---|---|---|---|---|---|---|---|
| 1788120949 | 27.22° C | 65% | 1015.2 hPa | 0 mm | - | - | - |
| 1788120649 | 27.22° C | 64% | 1015.1 hPa | 0 mm | - | - | - |
| 1788120349 | 27.22° C | 63% | 1015.1 hPa | 0 mm | - | - | - |
| 1788120049 | 27.78° C | 64% | 1015.1 hPa | 0 mm | - | - | - |
| 1788119749 | 27.78° C | 64% | 1014.9 hPa | 0 mm | - | - | - |
| 1788119449 | 27.78° C | 63% | 1015 hPa | 0 mm | - | - | - |
| 1788119149 | 27.78° C | 62% | 1015.1 hPa | 0 mm | - | - | - |
| 1788118849 | 27.78° C | 65% | 1014.9 hPa | 0 mm | - | - | - |
| 1788118549 | 27.22° C | 62% | 1014.9 hPa | 0 mm | - | - | - |
| 1788118249 | 27.22° C | 64% | 1014.9 hPa | 0 mm | - | - | - |
| 1788117949 | 27.22° C | 63% | 1015 hPa | 0 mm | - | - | - |
| 1788117649 | 27.22° C | 63% | 1014.9 hPa | 0 mm | - | - | - |
| 1788117349 | 27.22° C | 63% | 1014.7 hPa | 0 mm | - | - | - |
| 1788117049 | 27.22° C | 64% | 1014.9 hPa | 0 mm | - | - | - |
| 1788116750 | 27.78° C | 64% | 1014.9 hPa | 0 mm | - | - | - |
| 1788116449 | 27.22° C | 67% | 1014.8 hPa | 0 mm | - | - | - |
| 1788116149 | 27.22° C | 67% | 1014.8 hPa | 0 mm | - | - | - |
| 1788115850 | 26.67° C | 66% | 1014.8 hPa | 0 mm | - | - | - |
| 1788115550 | 26.67° C | 69% | 1014.9 hPa | 0 mm | - | - | - |
| 1788115250 | 26.67° C | 70% | 1015 hPa | 0 mm | - | - | - |
| 1788114950 | 26.67° C | 69% | 1014.8 hPa | 0 mm | - | - | - |
| 1788114760 | 26.11° C | 71% | 1014.9 hPa | 0 mm | - | - | - |
| 1788114650 | 26.11° C | 71% | 1014.9 hPa | 0 mm | - | - | - |
| 1788114350 | 26.11° C | 70% | 1014.8 hPa | 0 mm | - | - | - |
| 1788114050 | 25.56° C | 72% | 1014.8 hPa | 0 mm | - | - | - |
* Rain latest hour (hover to see other rain measurements)
** Current wind speed in m/s (hover to see current wind gust speed)